Location: Beddau
(51.5575°N, 3.3561°W)
Time: 11:59:11
(UTC+00:00)

MetOp-B - Pass Details

Date: 03 March 2021
Orbit: 819 x 821 km, 98.7° (Epoch: 17 April)

Event Time Altitude Azimuth Distance (km) Brightness Sun altitude
Exits shadow 20:49:49 76° 45° (NE) 853 4.0 -26.9°
Drops below altitude 10° 20:54:59 10° 347° (NNW) 2,432 7.0 -27.6°
Sets 20:57:21 0° 346° (NNW) 3,369 7.9 -28.0°
